2022-096L (53380 NORAD) Tracking and Keplerian Element Data

This shows tracking and keplerian element data for the satellite.

Feedback or suggestion? Click here.




ElementValue
Catalog53380
Name2022-096L
Epoch Orbit745
Epoch Day270.20081822
Epoch Year2022
RAAN171.3409
Inclination97.4317
Eccentricity0.0001897
Argument of Perigee291.9865
Mean Anonmoly175.2977
Mean Motion15.25512002
Decay Rate6.583E-05
L11 53380U 22096L 22270.20081822 .00006583 00000+0 26265-3 0 9999
L22 53380 97.4317 171.3409 0001897 291.9865 175.2977 15.25512002 7459

Live tracking and technical data element details for 2022-096L (NORAD 53380). 2022-096L can be tracked NOW for your location showing map with azimuth and elevation plus other details from your city location.

Track the satellite on the map from your city or location and see movement details for azimuth, elevation, latitude, longitude, range, height, and movement on the map or in text.







IsCatalogInMostPopularTable: catalog: 53380, numindb: 3
Update: records affected: 1



GetName: 53380 2022-096L

Hit Count: updated at: Thu, 29 Sep 2022 12:14:34 GMT